Theta_e
305 304 304 304 303 302 302 302 301 301 301 301 301 302 301 301 302 302 303 304 304 305 306 307 308 309 311 311 313 316 318 319 331 330 331 332 330 330 330 330 330 328 326
304 303 302 302 302 301 302 301 301 300 300 300 300 300 301 301 301 302 303 304 305 306 306 307 308 311 312 313 313 315 320 321 326 331 330 329 326 326 326 324 321 320 317
301 301 301 301 301 301 300 300 300 300 300 300 301 300 301 301 302 302 303 303 305 306 306 308 309 311 312 314 314 317 320 322 325 327 329 326 319 321 318 317 316 314 312
299 300 300 300 300 301 299 300 301 300 300 300 300 300 300 301 302 303 304 304 306 307 307 308 309 311 313 314 316 319 322 323 324 327 327 325 319 314 315 312 311 311 311
299 299 299 299 300 298 300 301 300 300 300 300 300 300 300 301 302 304 307 305 306 308 309 309 310 311 314 315 316 318 322 324 326 325 324 319 315 312 313 312 311 310 310
298 297 296 298 297 300 300 302 300 300 300 300 300 300 300 300 303 305 307 308 310 311 312 313 314 314 316 315 314 315 317 319 326 326 324 321 315 313 312 311 310 309 311
295 296 297 297 299 301 300 301 300 299 300 300 300 300 300 301 303 304 305 305 306 306 307 308 309 310 311 313 315 313 315 317 319 322 317 313 311 310 310 310 309 309 310
296 297 297 299 302 300 300 299 299 300 300 300 300 300 301 301 304 304 305 305 305 305 305 306 306 307 307 307 307 307 308 310 310 310 310 310 310 310 310 309 308 309 311
299 298 299 302 303 301 302 300 299 300 300 300 300 300 300 301 305 305 304 305 305 305 305 306 306 306 306 306 306 306 306 306 306 307 307 307 308 308 309 310 311 312 312
301 301 302 302 302 302 302 303 301 302 300 300 301 300 300 301 304 306 305 305 305 305 305 306 306 306 307 307 307 307 308 309 308 308 308 309 307 308 310 312 311 311 311
301 302 301 302 302 301 301 301 301 301 301 303 304 302 302 302 302 303 305 304 304 304 303 304 306 306 306 307 308 309 308 309 309 308 307 307 308 308 308 308 309 310 310
302 302 301 301 300 300 300 299 299 300 300 301 303 303 302 304 303 303 303 304 304 305 305 306 305 306 307 307 308 308 309 309 308 308 308 307 307 307 307 306 308 308 308
301 301 301 300 300 299 299 298 298 298 298 299 300 302 302 301 301 304 305 305 305 304 305 305 306 307 307 306 306 307 308 308 308 307 307 307 307 306 306 306 307 307 306
301 301 301 300 300 300 298 297 296 295 296 296 299 299 301 301 299 299 304 306 306 307 307 306 306 307 306 305 305 306 305 305 306 306 306 305 305 306 305 304 306 305 306
300 300 300 300 299 299 299 297 294 293 293 294 295 298 297 298 296 296 298 300 302 304 306 305 304 304 303 304 304 304 303 304 304 305 305 305 305 305 304 303 303 303 304
299 300 299 299 298 298 298 297 293 294 294 293 293 294 296 294 296 297 298 300 301 302 303 302 302 302 302 303 303 303 303 303 303 303 303 303 302 302 302 301 301 302 302
301 299 299 298 298 297 296 295 296 295 295 295 295 294 295 296 297 298 298 300 301 302 301 300 300 300 300 300 301 301 301 300 301 301 301 300 300 300 300 300 301 300 301
300 299 299 298 297 297 296 295 295 297 298 298 297 296 296 297 297 297 299 301 300 298 298 298 298 298 298 298 298 298 299 299 298 299 299 299 299 299 300 300 300 300 300
298 298 299 298 297 296 296 295 294 296 297 298 298 298 298 298 297 296 296 296 296 296 296 296 296 296 296 296 296 297 297 297 297 297 298 298 298 298 299 300 300 298 299
300 297 298 298 298 297 296 294 294 295 296 298 297 296 297 299 297 296 295 295 295 295 294 294 294 294 294 294 295 295 295 296 296 295 296 296 297 297 298 299 300 300 299
299 299 298 298 297 296 295 294 293 295 296 297 297 295 297 298 296 295 294 293 293 293 293 293 293 293 293 293 292 293 293 294 294 293 294 294 296 297 297 298 299 299 298
299 298 298 297 297 295 294 293 293 294 295 296 297 297 297 298 296 295 294 293 293 293 292 292 292 292 292 292 292 292 292 292 292 292 293 294 294 295 295 296 298 298 298
298 298 298 297 296 295 294 293 292 293 294 294 295 296 298 297 297 295 294 294 293 292 292 291 291 292 291 291 291 291 291 291 291 292 293 293 293 294 293 295 298 297 298
298 298 298 297 295 295 294 293 293 292 293 294 294 295 297 297 296 295 294 293 293 292 293 294 294 293 291 290 290 291 291 291 291 291 292 292 293 293 293 295 296 297 298
298 298 297 297 296 295 295 293 293 293 295 295 295 295 297 296 295 295 294 294 295 296 295 295 294 292 290 290 290 291 291 291 291 291 292 292 292 293 294 295 296 297 300
297 297 297 296 295 294 294 293 293 295 296 295 295 295 297 295 295 294 294 295 295 295 295 294 293 290 290 290 290 290 290 291 291 292 292 292 293 294 295 296 297 297 298
Wind_Speed
21 21 21 21 23 23 23 25 27 28 29 30 30 29 30 31 29 28 28 28 28 27 25 23 25 25 22 20 21 27 23 23 11 12 11 5 4 8 13 15 11 12 17
20 21 21 21 22 23 25 26 26 30 29 29 30 30 30 29 29 27 26 25 25 24 23 22 23 21 22 22 21 23 24 25 19 12 11 5 3 9 14 13 15 14 13
20 20 21 21 22 24 25 25 28 29 29 29 29 30 31 30 30 28 27 25 23 24 23 21 21 19 21 20 20 22 23 24 21 13 9 4 4 10 12 14 13 15 12
20 20 21 22 23 24 25 24 25 28 28 29 29 29 30 31 32 31 28 22 20 20 22 22 20 20 19 16 15 17 19 20 20 18 9 5 3 6 15 17 14 14 12
20 20 21 21 21 24 23 23 26 26 26 27 28 28 28 28 27 29 14 9 12 11 13 16 17 19 18 16 13 13 11 11 13 11 7 3 4 7 12 10 12 13 10
19 19 19 19 23 21 22 22 23 23 26 28 28 29 30 27 26 21 10 7 4 3 5 6 8 10 14 17 19 18 19 18 10 9 8 4 6 13 13 13 14 7 2
17 18 17 21 18 20 21 20 22 26 28 29 29 31 29 28 24 22 19 18 17 14 12 8 8 8 9 9 11 11 7 2 5 7 11 9 12 17 21 18 13 4 3
15 14 16 18 19 21 20 21 25 27 27 27 28 31 29 30 26 25 25 24 26 25 24 23 23 23 21 23 28 31 31 27 22 21 18 16 18 18 14 14 14 11 9
12 15 18 18 17 19 22 25 25 28 28 28 29 31 31 32 28 26 28 25 25 27 28 28 26 29 27 26 28 28 27 30 31 30 26 21 17 15 12 13 13 11 8
16 18 19 15 15 20 22 20 21 21 26 26 28 31 30 32 31 28 30 26 26 24 25 31 27 27 28 25 24 24 24 23 24 24 26 19 19 16 12 5 2 6 9
17 16 15 16 17 19 20 20 21 21 24 22 23 24 28 30 34 29 24 26 22 21 23 26 24 24 24 24 21 20 18 17 18 19 20 16 13 12 10 9 8 6 2
15 14 15 16 18 18 20 22 22 22 21 21 21 21 24 23 26 27 29 25 23 19 18 19 22 23 23 23 21 21 14 14 14 14 14 11 10 8 8 7 7 6 6
14 15 15 16 16 18 19 22 24 24 22 21 21 21 22 25 25 22 19 22 22 21 19 19 19 18 20 22 23 19 16 14 12 13 11 9 8 7 5 5 4 4 6
14 15 15 15 15 14 17 20 21 24 23 22 19 21 20 22 25 25 19 16 15 12 12 13 14 16 21 19 18 16 16 14 11 10 8 7 6 6 7 8 5 4 2
15 15 17 16 16 16 13 13 19 20 20 21 21 17 20 19 19 22 21 17 14 13 10 16 18 17 16 15 15 15 14 13 12 10 9 9 8 8 8 8 7 5 4
16 16 17 17 17 16 15 9 11 16 22 24 25 24 17 19 17 18 23 19 20 19 18 16 16 16 16 15 15 14 14 14 13 11 10 10 9 9 9 8 7 6 4
15 15 16 17 16 16 16 16 14 6 12 19 24 25 26 26 24 19 13 16 25 20 18 18 17 17 16 16 15 14 14 13 11 11 10 10 10 9 8 7 6 5 4
14 13 14 15 16 16 15 15 15 15 15 16 18 22 22 24 26 25 22 19 20 21 19 18 17 16 15 15 14 13 13 13 13 12 11 10 9 8 8 7 6 4 4
14 15 13 13 15 14 15 14 15 15 15 16 19 19 21 19 24 25 25 22 19 18 18 18 17 17 16 16 15 14 13 13 13 12 10 9 9 8 6 5 4 5 4
11 14 13 14 14 15 15 15 15 15 15 16 20 20 19 21 21 22 22 21 20 18 18 17 17 16 16 15 15 15 14 13 12 11 10 9 8 7 6 5 4 4 4
11 11 13 14 15 15 14 15 15 15 16 16 16 20 19 19 19 19 19 19 18 17 17 16 15 15 15 14 14 14 13 12 11 11 10 9 8 7 5 4 3 3 3
9 11 12 14 14 14 14 14 14 15 15 16 15 16 18 18 18 18 18 18 16 15 15 15 14 15 15 16 15 14 14 13 12 11 10 8 7 5 4 3 3 3 4
9 10 11 12 11 12 13 13 15 14 14 15 16 17 18 18 17 17 17 17 16 16 16 15 16 17 17 17 16 15 15 15 13 12 10 7 5 4 3 3 3 4 5
9 10 10 11 13 13 14 14 14 13 15 15 16 16 16 17 17 18 18 17 16 16 16 17 18 20 20 18 18 16 15 15 13 10 7 5 4 2 2 3 5 6 7
9 10 10 11 13 13 13 13 14 14 15 16 16 15 16 17 18 18 18 18 17 17 18 19 20 22 21 18 19 18 16 14 12 8 5 3 2 5 5 6 7 9 7
9 10 10 11 12 12 13 13 14 15 16 16 15 15 16 17 17 18 18 20 19 18 19 20 23 25 24 22 19 17 15 13 11 8 5 5 7 7 8 8 10 10 9
Wind_Direction
330 327 325 324 322 319 317 318 317 314 314 310 308 307 303 299 295 290 281 274 263 261 258 258 254 250 245 244 253 246 242 252 251 256 250 204 202 214 198 189 177 173 180
331 328 327 324 325 325 325 322 322 320 320 316 313 310 306 302 297 289 282 274 263 258 255 253 256 252 244 239 246 253 242 242 250 249 238 196 181 208 209 191 170 158 159
334 330 330 330 332 331 328 326 325 326 324 321 320 316 314 311 306 298 285 277 270 260 256 253 254 254 251 243 243 245 247 236 243 248 220 189 171 187 167 163 154 142 141
337 336 336 336 334 333 329 329 330 330 327 329 329 325 323 321 317 308 289 274 276 261 254 253 252 257 256 251 254 265 246 232 234 242 241 182 156 168 171 148 139 148 135
342 341 340 337 336 337 335 337 339 341 341 342 338 339 339 337 335 341 354 249 277 271 259 254 255 256 255 248 249 259 260 249 236 213 186 151 152 150 165 163 139 146 143
346 343 339 340 340 343 343 347 347 351 355 350 348 348 349 350 5 16 17 11 346 326 306 290 266 266 259 248 247 257 269 287 265 220 194 178 164 163 147 138 119 119 119
349 353 347 345 345 349 347 350 352 358 0 357 356 360 356 5 22 35 46 54 55 51 46 46 56 63 77 106 141 140 123 146 235 194 105 107 98 117 128 135 145 161 160
357 355 353 353 357 349 354 1 4 9 5 2 1 3 6 18 37 47 47 50 56 59 63 68 72 71 77 82 89 86 79 75 82 94 99 108 126 131 144 148 160 171 174
357 357 359 355 2 360 360 358 4 12 12 11 14 15 15 19 41 51 47 45 53 54 63 72 71 79 82 82 81 82 82 81 84 85 84 91 99 109 133 150 184 199 128
1 355 360 1 357 2 4 6 356 358 4 16 24 26 25 29 38 54 57 46 48 51 57 68 74 82 84 81 84 84 83 89 94 91 84 78 78 83 73 79 356 136 146
352 4 10 7 3 4 8 10 10 11 1 8 10 23 25 35 37 42 54 60 53 51 52 61 65 72 71 74 74 79 91 95 91 88 85 82 77 72 64 55 40 28 5
359 8 12 13 12 12 14 17 15 9 14 17 13 24 30 28 28 35 46 51 58 57 61 68 74 75 72 68 63 65 71 82 78 75 71 65 60 57 51 45 51 57 67
8 10 7 9 13 16 17 20 19 13 15 13 17 20 26 25 22 20 33 42 59 63 65 66 66 65 63 60 59 56 56 56 55 57 61 58 46 39 34 35 58 69 79
9 7 7 10 9 14 20 22 24 17 15 16 12 19 20 23 18 17 21 27 32 42 47 52 54 57 49 45 42 45 50 46 42 48 41 35 27 20 25 11 6 8 188
15 14 10 17 17 18 30 33 35 36 34 26 17 18 17 16 13 28 31 27 22 21 21 47 41 39 39 39 41 39 40 37 34 28 21 16 16 18 20 15 15 16 31
12 11 17 15 19 22 23 59 50 49 43 41 39 38 29 26 26 32 40 40 42 40 53 52 46 40 36 33 30 27 28 24 20 16 18 17 17 15 11 9 12 16 32
8 6 14 19 21 24 24 26 25 53 43 40 38 35 40 38 40 37 28 49 39 53 51 43 36 28 23 20 17 16 14 11 9 13 13 14 13 13 9 9 13 25 40
18 24 20 23 20 22 25 26 27 28 26 25 30 32 30 41 36 33 34 44 41 37 36 31 25 21 18 14 10 8 6 7 8 7 7 6 7 7 4 8 20 23 29
24 23 20 23 25 21 24 28 29 30 29 28 24 25 26 43 38 34 36 39 33 29 25 23 18 15 12 8 5 3 1 0 360 360 360 357 357 358 355 1 19 38 28
32 28 21 22 24 24 26 27 28 28 29 30 31 21 19 32 29 27 27 27 25 21 16 13 11 9 6 4 1 359 355 354 353 353 350 346 345 344 345 350 16 36 41
22 27 22 27 26 23 26 28 30 27 28 31 35 27 23 38 28 24 19 17 14 11 6 4 2 0 358 355 354 351 349 346 344 344 342 340 339 344 345 350 12 52 79
27 26 26 31 25 28 25 29 30 29 28 28 27 33 30 39 27 19 14 11 6 4 2 0 356 355 352 350 348 345 343 340 339 337 334 333 337 347 351 1 37 61 90
32 35 36 33 27 28 32 33 31 27 28 27 27 29 30 29 24 17 11 6 3 0 0 360 359 356 353 352 349 347 340 340 335 335 338 339 343 354 9 21 49 95 95
41 42 36 37 35 33 28 30 28 31 26 28 28 30 28 27 22 15 7 360 358 1 5 4 1 358 353 355 356 357 352 347 348 338 340 341 352 354 100 44 86 86 115
44 47 42 38 36 31 31 30 29 27 29 28 29 29 28 26 18 10 6 5 6 7 5 5 4 1 360 359 2 2 358 359 0 3 9 20 53 112 90 95 97 107 119
50 49 44 41 41 36 32 30 28 29 29 30 30 30 29 24 15 10 8 9 9 8 4 4 2 360 5 6 7 9 7 8 15 29 58 83 104 101 96 96 111 111 116